Theta_e
339 328 328 327 328 327 323 320 302 308 306 300 301 302 302 309 310 308 308 311 307 312 313 315 315 314 311 311 313 315 316 312 316 307 311 332 348 348 353 353 354 355 354 357 357 354 357 355 354 354 354 353 353 353 353 353 353 353 353 355 355 355 354 354 354 353 353 353 354 354 354 354 353 353 353 353 352 352 352 352 351 351 352 352 352 351 351 351 353 351 350 349 347 350 350 349 347
323 325 327 328 326 319 312 316 305 303 303 300 302 304 305 309 309 307 307 308 309 311 314 315 316 316 315 315 316 318 316 320 325 326 337 344 348 349 353 355 355 352 354 355 354 350 353 353 353 354 354 353 353 353 353 353 353 352 352 353 353 354 354 353 353 352 353 353 354 354 354 354 353 353 353 353 352 352 352 351 351 350 351 351 350 350 350 351 351 351 350 349 350 351 350 348 347
322 324 323 323 323 317 315 314 300 301 298 297 300 303 309 306 306 308 309 310 312 314 315 315 316 318 316 317 313 313 313 329 327 334 335 344 338 346 352 354 356 355 355 354 344 342 349 354 353 353 352 353 353 353 353 352 353 353 353 352 352 353 354 353 352 353 353 353 354 354 354 353 353 353 352 352 351 351 350 350 350 350 350 350 349 349 350 350 350 350 349 350 351 351 349 348 346
322 324 320 319 312 316 308 308 304 300 298 299 300 305 306 306 307 309 310 311 313 314 315 312 311 324 314 311 313 320 322 327 338 332 333 340 345 349 353 354 359 355 357 343 341 340 347 354 354 354 352 351 352 353 352 352 352 353 352 352 352 352 351 352 352 352 353 353 353 353 353 352 352 352 352 351 351 350 350 350 350 348 349 349 349 349 349 349 349 350 349 349 350 349 348 346 343
320 321 321 316 312 308 307 305 303 303 297 301 299 305 306 307 308 309 310 312 313 313 313 312 311 321 324 320 325 315 326 334 338 344 341 347 351 350 353 354 356 355 344 340 341 342 347 353 353 352 352 352 352 352 352 351 352 352 351 351 352 352 351 351 351 352 353 353 353 353 352 352 351 351 351 351 351 350 349 349 349 348 348 348 348 348 347 347 349 350 350 349 348 347 346 345 344
318 319 319 317 309 316 309 302 301 300 303 305 302 305 307 309 308 309 311 312 313 313 313 312 309 310 317 319 330 321 335 322 339 341 344 347 348 354 354 356 356 355 344 346 348 349 350 349 349 349 350 351 352 353 352 351 351 351 351 351 351 351 350 350 351 352 353 353 353 352 352 352 351 351 350 349 348 349 348 348 347 348 348 348 347 347 346 349 348 348 348 348 346 346 345 345 344
315 315 314 313 312 311 302 301 301 302 304 307 305 306 307 308 309 309 309 309 311 311 312 311 313 315 313 327 331 338 341 340 338 341 344 346 350 352 354 355 355 355 345 347 351 352 352 348 347 348 348 349 350 350 351 351 352 350 350 349 350 350 349 350 350 351 352 353 352 351 351 351 350 350 349 348 348 348 348 347 347 347 347 347 346 348 348 349 347 347 347 347 345 347 347 346 345
321 312 311 306 304 306 301 301 301 303 304 307 308 307 308 308 308 307 307 305 305 305 309 312 317 315 319 327 319 336 340 341 342 344 346 348 350 351 353 354 355 353 351 350 352 351 351 348 346 346 347 347 348 348 349 349 350 350 349 348 345 347 348 348 349 350 351 352 351 351 351 351 350 349 348 346 348 348 347 347 347 347 346 347 347 349 348 348 347 347 346 346 347 346 346 346 346
315 312 314 306 302 305 301 300 302 306 305 307 307 308 311 307 306 305 305 306 307 308 311 317 318 311 320 322 325 335 339 342 344 345 345 347 348 350 352 352 351 352 354 351 353 353 351 347 346 346 345 346 346 347 346 344 345 346 345 343 344 342 345 347 348 349 349 350 350 351 351 351 350 347 345 346 346 348 348 347 347 346 345 348 348 349 347 347 346 345 345 347 348 347 347 346 346
312 311 305 303 304 298 300 300 299 302 303 306 305 304 306 308 308 309 308 308 308 309 310 314 320 314 322 317 327 333 338 342 344 344 345 347 348 349 350 352 354 354 353 353 355 353 352 349 346 345 345 345 345 345 345 346 345 344 343 344 342 334 341 345 345 344 344 344 347 350 350 349 349 348 347 346 347 349 349 347 347 345 344 348 349 348 347 346 346 345 345 346 347 347 347 347 347
306 309 311 302 299 297 297 298 300 302 302 304 305 308 309 309 308 307 308 308 311 310 312 318 315 316 319 321 329 340 341 342 342 340 344 346 348 348 349 351 353 355 353 355 356 357 354 351 347 345 344 343 343 344 344 343 344 342 343 342 342 342 342 343 342 340 340 338 340 349 349 349 349 348 347 346 345 349 349 348 347 344 347 349 348 347 346 346 346 346 346 345 346 346 346 346 347
304 304 305 297 297 297 298 298 299 300 301 304 305 308 310 312 314 310 309 307 308 309 311 317 314 321 317 321 329 338 339 340 341 342 343 346 348 349 349 351 353 354 354 354 356 355 354 352 351 346 343 343 342 342 341 340 341 341 341 343 342 337 337 342 341 341 340 339 341 347 349 349 349 349 347 347 344 348 349 348 346 344 348 348 349 348 348 347 346 346 345 345 346 346 346 346 347
305 306 302 298 298 299 299 298 298 299 302 304 304 309 316 318 313 316 312 308 309 308 309 317 328 323 316 320 334 337 336 338 341 342 344 345 346 348 351 351 350 352 353 354 353 355 355 353 350 349 346 344 345 344 341 341 340 339 339 340 342 342 342 342 342 341 341 341 342 347 349 349 349 349 348 348 346 350 349 347 345 345 347 347 349 348 347 346 346 346 344 344 345 346 345 346 346
306 307 303 298 303 300 298 298 300 299 301 304 308 311 317 316 316 314 312 306 308 308 315 321 326 323 320 326 329 332 336 338 340 342 344 345 346 346 347 349 350 350 351 352 351 352 354 354 349 346 346 346 346 344 341 340 340 340 340 340 342 341 342 342 342 342 342 342 343 348 349 349 348 347 346 342 339 340 340 344 345 346 347 347 348 348 347 346 344 344 345 345 346 346 346 346 346
306 309 304 301 300 299 300 297 299 301 301 304 306 309 314 320 319 319 311 309 312 326 329 329 327 321 319 319 321 325 335 337 339 342 343 344 345 345 346 348 348 349 350 350 351 351 352 352 350 343 342 342 346 348 348 344 341 341 341 342 342 342 342 343 343 343 342 342 345 347 347 348 346 344 343 341 339 337 338 341 345 346 346 346 347 347 346 346 346 344 344 345 346 346 346 346 346
311 307 304 299 298 297 299 299 303 301 301 305 306 308 310 319 320 320 322 327 325 328 325 320 331 322 324 318 327 336 338 339 340 341 341 341 343 346 346 346 347 347 349 349 348 349 351 350 351 346 344 345 347 348 348 348 344 343 342 342 342 341 342 343 344 344 343 346 346 346 346 347 346 347 342 343 340 338 338 344 345 346 346 346 346 346 346 345 345 346 346 347 346 346 346 346 346
311 308 300 299 297 297 299 301 302 299 303 306 307 307 306 311 321 321 327 328 321 322 328 328 325 331 331 332 335 338 338 340 340 339 339 339 340 340 340 340 343 344 345 347 348 346 350 351 349 350 348 347 348 348 348 349 346 344 344 342 342 342 342 343 344 345 346 346 346 345 345 348 350 350 347 349 340 340 339 342 345 347 346 346 346 346 346 346 345 346 346 346 346 346 346 345 345
308 301 300 297 300 297 303 302 304 304 303 305 305 306 306 311 319 322 328 324 324 325 326 327 330 331 334 334 337 338 338 338 338 337 338 340 341 339 338 338 338 339 341 343 346 347 347 348 348 351 350 351 351 350 349 348 345 344 347 348 347 346 343 343 345 345 345 348 344 346 347 348 349 348 347 343 349 342 339 342 344 338 345 347 346 346 346 347 347 345 346 346 347 346 346 345 345
304 302 301 298 300 302 306 306 305 304 304 305 305 306 306 311 317 320 317 317 319 319 322 325 325 330 332 334 334 335 336 337 337 338 338 339 338 338 337 338 338 337 338 341 342 344 345 346 347 346 348 350 351 350 348 347 348 348 346 344 347 344 345 345 346 346 347 346 346 346 346 347 347 347 347 344 342 338 338 340 338 342 346 345 347 347 347 346 347 347 346 346 346 346 347 340 339
306 303 298 300 304 304 306 306 305 306 306 304 304 305 305 314 314 319 313 311 314 312 315 318 318 326 328 331 334 334 335 336 339 339 337 337 337 338 338 337 336 336 339 341 340 343 343 343 344 345 346 350 351 349 347 346 348 349 348 349 349 348 346 347 348 346 345 346 344 347 347 346 347 344 341 342 341 342 340 338 341 342 344 346 345 348 347 346 346 347 346 347 348 344 339 337 337
306 302 300 302 304 303 306 306 306 306 306 304 304 305 304 311 315 317 311 309 310 311 314 314 313 321 329 331 334 336 337 338 338 339 338 337 337 339 338 338 336 337 340 342 341 341 342 344 344 346 348 350 350 349 347 346 349 349 348 348 348 348 347 347 347 347 348 348 346 348 347 346 346 345 343 341 343 342 340 341 339 342 345 346 346 347 346 346 347 345 347 346 340 337 337 337 337
305 302 304 305 305 303 306 306 306 305 305 304 304 303 304 313 313 313 313 307 307 311 313 315 315 323 330 330 332 335 337 336 336 336 336 337 337 336 337 337 339 339 340 339 339 341 341 343 344 348 347 347 348 347 347 347 350 347 347 346 347 348 348 348 348 346 345 347 346 346 346 347 346 343 343 343 340 340 340 339 339 342 343 344 345 345 345 346 345 345 343 339 339 340 339 338 336
299 303 304 305 305 303 306 306 306 305 304 303 303 305 307 307 309 311 312 311 311 322 321 322 325 329 332 332 332 333 335 336 336 335 335 335 335 335 335 336 336 337 337 338 339 340 340 340 342 346 346 346 347 348 348 348 348 348 348 347 346 347 348 347 347 347 347 346 345 344 344 345 345 343 343 344 341 341 339 337 337 334 338 344 345 343 344 346 343 344 344 342 339 339 338 337 337
303 302 304 304 305 304 306 306 305 304 303 303 305 306 305 306 304 309 309 312 317 320 324 325 331 333 331 330 333 331 334 336 336 336 335 336 336 334 335 336 336 339 338 337 338 339 340 341 343 344 346 347 348 348 348 346 347 348 348 346 347 346 345 345 346 348 348 346 344 343 343 344 343 342 344 344 344 343 340 340 342 340 342 344 344 344 345 342 341 343 345 341 338 339 337 338 337
301 301 303 304 305 305 306 306 305 305 304 306 305 303 304 307 306 311 308 312 316 322 325 326 328 329 329 329 332 334 335 336 335 334 334 334 335 336 337 336 337 336 336 338 338 339 339 340 342 342 344 344 346 345 343 344 346 346 346 346 345 345 345 345 347 349 347 346 346 346 344 343 341 343 343 343 345 341 343 342 343 342 344 344 346 344 341 341 341 341 344 342 342 340 339 339 337
303 303 304 304 304 305 305 305 305 304 305 305 303 303 305 306 313 307 309 312 320 324 323 325 326 326 327 328 332 333 335 334 334 332 332 333 334 334 334 335 336 335 336 337 337 338 339 340 341 341 342 342 341 342 341 343 344 343 344 345 344 346 346 347 348 346 346 345 344 345 345 344 344 344 344 344 343 343 344 344 342 341 344 346 346 344 346 344 343 343 343 341 338 340 340 339 340
303 303 303 303 303 304 305 303 304 304 304 304 302 302 303 307 306 303 310 315 322 319 321 324 323 322 325 327 330 333 333 333 333 333 332 333 333 333 334 334 334 334 336 337 338 338 339 340 339 340 341 341 341 340 340 342 344 341 342 343 341 341 343 346 346 346 346 346 346 346 346 347 346 345 344 343 343 342 342 342 342 340 343 343 346 347 347 346 346 344 343 343 343 345 343 344 341
303 302 302 303 303 304 304 304 303 304 302 304 304 303 308 307 306 305 310 319 319 316 319 322 321 321 324 326 329 330 332 332 332 332 331 330 331 332 332 332 333 334 335 336 338 339 339 340 340 340 340 341 340 340 340 339 341 343 345 344 344 344 344 343 343 344 343 343 343 343 346 347 346 346 345 343 343 341 340 340 340 341 341 342 344 345 347 347 347 346 344 345 345 346 345 342 342
303 302 299 301 303 302 304 302 303 304 302 304 305 305 303 305 302 307 314 318 317 317 317 320 319 320 323 326 328 328 330 331 332 331 332 332 333 332 331 333 334 333 335 337 337 338 339 339 339 339 340 339 340 339 339 340 343 343 344 344 342 342 342 344 344 344 345 345 345 345 345 344 343 344 345 343 341 341 340 339 339 341 341 341 343 342 342 345 344 344 344 346 345 344 343 341 337
303 302 300 299 300 300 302 303 303 303 303 304 306 295 299 302 305 309 317 315 317 315 315 317 318 320 321 325 326 328 331 331 331 332 332 332 331 332 332 334 335 334 333 336 337 337 338 339 340 340 340 339 339 340 341 339 341 343 344 342 341 342 342 343 343 342 343 342 342 342 341 340 340 343 343 342 341 340 339 339 339 341 342 343 343 342 342 345 345 345 345 346 342 343 341 339 339
299 301 301 298 297 297 301 302 302 301 302 305 306 296 300 303 305 309 317 315 314 311 313 314 315 318 320 324 325 327 329 332 332 333 333 333 332 332 333 335 335 335 333 335 336 338 337 338 339 338 340 339 339 340 340 340 343 342 343 342 341 342 343 343 343 343 343 343 341 341 341 341 340 339 339 341 340 339 339 339 339 341 343 345 342 341 342 342 342 342 344 344 344 343 341 342 340
301 297 295 298 296 298 300 303 301 300 301 305 302 297 299 303 305 310 315 315 313 311 311 313 314 317 321 325 325 328 329 331 332 332 332 332 332 331 332 332 334 334 334 335 337 337 337 338 339 339 340 339 339 339 340 339 339 340 339 338 340 341 342 343 343 342 343 343 343 342 342 341 340 340 340 340 345 341 340 340 339 340 341 342 339 341 342 341 341 341 342 342 341 339 340 340 339
300 297 296 296 297 298 298 300 302 302 301 302 301 297 301 301 304 306 312 313 313 311 311 313 314 316 321 323 324 327 329 330 330 331 331 331 331 331 332 333 333 333 334 335 335 336 336 337 338 339 338 339 339 339 339 339 339 338 339 338 339 341 339 340 340 342 342 343 343 341 342 343 343 342 341 342 343 342 342 342 341 341 341 339 340 339 339 339 340 340 340 342 341 339 340 339 339
297 299 296 297 295 297 296 299 302 302 301 299 301 298 300 302 304 307 308 310 311 311 312 313 315 317 321 322 324 326 328 328 329 330 332 332 331 332 332 332 333 333 334 335 336 335 335 336 338 339 339 339 339 338 339 338 338 337 337 338 340 338 340 339 339 340 339 338 341 340 342 343 342 342 343 339 339 340 341 338 337 338 338 340 339 336 337 337 338 340 337 338 339 338 336 336 338
295 297 296 296 297 297 296 296 299 301 301 299 300 299 300 302 304 306 310 310 310 310 311 313 315 318 321 321 322 324 325 327 329 331 333 333 333 332 331 333 333 332 334 335 335 335 335 335 336 337 338 337 337 336 337 338 338 337 336 336 336 337 338 337 337 336 336 339 336 342 343 343 342 343 342 343 342 339 341 340 339 338 338 338 338 337 338 337 338 339 336 335 338 341 342 342 339
296 296 296 296 295 296 296 299 301 301 299 299 299 298 300 302 303 305 313 314 310 310 312 312 315 318 321 320 321 322 323 327 332 334 334 333 333 332 332 332 332 332 333 334 334 334 335 335 336 336 336 337 336 335 334 334 336 334 333 334 334 335 335 334 336 335 336 335 336 337 336 337 336 338 339 340 342 340 339 339 338 337 338 337 336 337 337 334 334 338 338 338 337 339 340 338 338
298 297 296 296 295 296 298 299 301 303 299 299 300 300 300 301 303 304 308 316 313 312 312 313 315 316 319 319 321 323 326 327 334 335 334 333 333 331 331 332 331 332 332 333 333 332 333 332 334 333 334 334 334 333 333 334 333 332 334 334 332 335 334 335 336 336 335 335 336 335 335 334 335 334 334 334 337 335 336 336 336 335 335 335 335 339 337 338 339 339 338 337 335 332 335 338 337
297 296 296 295 296 295 298 299 302 303 299 298 300 299 300 301 303 305 307 312 313 313 314 315 315 316 318 320 321 324 327 331 333 332 334 334 332 332 331 331 332 329 330 331 331 331 332 333 332 332 333 335 335 335 335 335 335 333 332 331 332 332 332 331 332 334 334 334 334 334 334 334 334 334 334 334 334 333 333 333 334 335 336 336 337 338 338 338 335 334 333 335 335 332 333 333 334
297 296 296 295 296 298 300 300 301 302 300 299 300 299 300 302 303 305 305 307 313 317 318 318 317 317 319 320 323 325 326 329 329 330 333 332 332 331 330 331 332 332 331 330 331 331 332 331 331 332 333 335 336 338 336 336 336 338 336 334 332 332 335 334 332 333 334 334 335 334 334 333 332 331 332 332 332 333 333 332 332 333 333 333 334 335 337 338 338 334 334 333 332 332 331 335 335
298 297 295 294 298 295 294 299 301 301 300 299 300 299 300 303 305 305 306 305 309 316 317 319 322 320 319 320 322 324 324 327 327 329 329 330 331 331 331 330 331 331 330 329 330 330 330 331 332 332 334 336 337 336 338 340 340 340 339 338 335 334 332 334 334 334 333 332 331 331 330 330 328 329 329 330 330 332 333 332 333 332 332 333 335 334 334 333 336 334 334 332 331 327 331 331 336
299 298 297 297 297 297 297 297 300 301 302 301 300 298 298 301 301 302 308 308 309 312 314 316 318 319 321 323 323 325 324 327 327 327 329 329 330 330 331 331 331 330 329 329 330 330 330 332 333 334 334 335 335 336 337 337 336 336 336 336 335 333 332 331 329 328 329 328 328 328 327 328 328 327 330 330 330 330 331 331 330 331 331 333 333 331 331 331 331 332 334 334 333 332 329 332 336
299 299 299 298 298 297 298 299 298 297 296 300 298 292 293 299 300 301 304 306 309 314 315 315 318 320 319 320 322 324 325 328 329 328 329 330 330 332 331 331 330 330 330 331 331 331 332 332 333 335 334 335 335 337 336 335 334 332 330 328 326 327 326 327 325 325 325 325 323 327 328 327 328 329 329 330 329 329 330 330 330 329 329 329 330 329 329 329 328 328 329 330 329 331 328 328 328
297 297 302 301 299 298 298 298 298 293 291 298 300 292 289 298 298 301 303 304 306 310 310 311 313 314 316 319 321 322 323 324 328 329 329 329 331 331 331 331 331 330 331 331 331 332 332 333 334 335 334 334 337 336 336 335 334 332 331 330 330 328 326 328 328 327 326 324 327 327 326 329 328 328 329 330 330 330 330 330 330 328 328 328 328 328 327 326 325 325 327 327 327 327 327 324 325
295 302 304 302 300 298 298 298 298 296 299 300 299 298 292 291 297 301 302 304 306 308 310 311 313 315 315 316 319 322 322 324 325 327 328 330 331 331 331 331 331 330 332 331 331 331 332 332 333 334 334 334 337 337 336 336 333 333 332 332 330 327 327 325 327 327 328 327 326 327 327 327 328 328 328 328 329 328 329 328 329 328 326 327 326 325 325 325 325 325 325 326 325 325 325 323 323
301 303 304 302 301 299 299 298 297 297 297 293 296 299 293 292 297 303 305 302 304 307 309 310 312 314 317 319 318 317 322 324 325 326 328 329 331 332 332 331 332 332 331 330 331 331 331 331 332 334 334 335 336 336 337 335 334 333 333 332 328 328 328 326 325 326 325 327 326 326 327 326 326 327 328 327 327 327 327 327 327 327 326 326 325 325 324 323 324 324 324 323 323 323 324 324 321
303 304 305 304 302 301 300 298 296 296 293 289 294 297 290 290 298 302 304 302 303 305 307 309 311 312 314 316 319 319 317 321 324 325 326 330 332 333 334 333 333 332 332 331 331 331 331 331 331 332 333 334 335 336 335 335 334 333 333 331 328 326 325 325 325 325 325 327 325 325 325 325 324 326 327 327 327 326 326 326 325 324 325 325 323 325 325 324 323 323 323 323 323 322 322 322 321
305 304 300 302 301 301 302 299 298 295 287 290 294 296 294 288 296 300 300 299 304 306 307 309 311 312 313 315 318 320 318 318 321 323 325 328 332 333 334 333 332 332 332 330 330 329 331 330 331 331 333 333 334 334 334 333 334 334 333 331 328 326 326 325 324 324 324 324 323 322 322 322 323 324 324 326 326 325 326 325 324 323 324 323 322 323 323 322 323 323 323 322 322 321 320 321 321
303 300 299 298 296 297 298 298 298 289 287 292 296 294 296 287 294 300 303 305 306 306 305 307 308 310 311 313 314 318 320 320 321 322 324 326 329 331 332 332 332 332 331 330 329 329 330 330 330 330 331 332 332 333 333 332 331 332 332 330 326 326 325 324 324 324 323 322 322 321 321 322 322 323 324 324 324 324 325 324 323 323 322 323 322 323 323 322 321 321 321 320 320 320 320 319 319
301 300 299 291 288 288 285 287 284 286 286 293 296 295 292 292 297 302 304 305 306 308 307 308 308 309 311 312 313 314 317 319 320 321 323 325 326 328 330 331 331 330 328 329 328 329 329 330 330 329 329 332 332 333 332 331 330 331 330 328 326 326 324 325 324 324 322 321 321 321 321 320 321 321 322 322 322 323 324 323 322 321 322 323 322 321 322 322 322 321 320 320 320 319 318 319 317
300 299 296 291 285 283 280 284 287 289 293 295 294 296 291 297 298 303 304 306 308 308 310 311 310 310 311 311 313 313 314 316 319 322 322 324 325 327 328 329 328 328 329 329 328 328 329 329 330 328 330 332 333 333 331 330 330 330 329 327 326 324 324 325 324 322 322 322 322 322 322 322 321 322 322 322 322 321 322 322 322 321 321 320 320 320 320 320 320 318 319 318 318 319 320 319 319
300 300 298 294 289 286 281 283 282 285 290 293 297 291 289 290 292 305 306 308 308 310 310 311 312 312 313 313 313 313 313 314 315 318 321 323 326 326 326 327 329 330 329 328 328 328 328 328 328 329 330 332 333 332 330 330 328 328 327 326 325 324 323 324 322 323 323 322 323 323 323 322 322 322 321 322 322 321 321 321 319 319 318 319 318 318 318 319 318 317 317 319 318 319 318 318 318
302 301 300 295 291 296 287 290 289 291 290 291 292 291 296 294 302 304 306 306 307 308 308 309 309 311 313 312 312 312 313 313 314 315 317 320 325 326 327 327 327 329 330 328 327 328 328 328 328 329 330 332 332 331 330 328 326 326 326 325 325 324 324 324 323 323 324 324 324 323 323 323 322 321 322 322 321 320 319 318 318 317 318 318 318 317 317 316 316 316 316 317 316 317 318 317 317
298 299 293 296 301 298 293 291 295 294 290 287 294 295 297 301 302 303 304 303 303 305 306 307 308 309 311 310 311 312 313 313 314 314 315 318 320 324 326 326 327 327 327 327 328 329 329 328 328 328 329 330 331 329 329 327 326 325 325 325 324 324 323 324 322 324 324 325 324 324 323 322 323 323 321 322 321 320 319 319 318 318 318 318 318 317 315 315 315 315 315 314 315 316 316 315 317
301 295 297 302 304 302 295 287 289 287 284 286 293 290 289 291 286 300 300 300 301 302 304 306 308 309 308 309 311 312 313 315 316 315 315 317 320 322 324 325 327 328 328 327 328 329 330 330 329 328 328 327 325 323 324 325 325 324 324 324 324 324 324 323 324 323 324 323 323 323 324 322 322 322 321 321 321 319 318 317 318 318 318 317 317 316 315 315 316 314 315 314 314 316 314 315 317
300 298 304 296 288 288 296 290 283 284 283 285 291 292 292 292 291 296 296 298 300 301 304 305 305 306 308 309 310 312 313 314 315 316 315 316 319 321 323 324 325 326 326 326 325 327 327 328 328 328 328 325 323 324 322 323 324 322 322 323 323 323 323 324 324 324 324 323 322 323 322 322 323 322 321 321 320 319 319 318 318 318 318 317 317 316 316 316 315 314 314 313 314 315 313 313 315
304 306 302 303 300 294 290 291 289 292 285 285 286 291 286 293 293 296 296 298 300 301 303 304 305 306 307 308 309 310 312 313 314 315 315 316 319 321 322 323 322 323 323 323 323 324 322 323 325 326 326 325 323 320 322 322 321 320 320 322 323 322 322 323 324 324 323 322 321 321 322 322 322 322 321 320 319 318 318 318 318 317 316 316 315 315 315 315 315 314 314 313 313 313 311 312 313
298 299 297 298 299 300 298 298 293 289 286 286 285 283 287 292 297 298 298 299 300 302 301 303 305 306 308 308 309 310 311 312 314 314 315 316 318 320 321 323 322 323 322 323 323 322 320 321 322 324 325 324 322 321 321 321 321 320 321 321 321 322 323 323 324 324 324 323 322 322 322 322 322 322 322 320 319 318 317 317 317 316 315 315 314 315 315 315 313 313 313 313 312 312 310 311 312
298 297 294 296 294 293 288 286 296 295 291 286 285 283 288 296 300 301 300 301 301 302 302 303 304 305 307 308 310 311 311 313 314 315 316 316 318 320 319 321 322 321 321 321 323 322 321 320 321 322 323 323 323 321 320 321 321 321 321 321 321 323 323 323 324 324 324 322 322 321 322 322 322 322 321 319 318 318 318 317 316 315 315 314 313 313 314 313 312 311 312 312 312 310 310 310 310
Wind_Speed
6 4 1 4 5 4 5 4 10 5 6 11 11 8 7 2 6 7 7 3 8 4 2 4 1 3 7 6 8 7 5 9 4 10 2 3 4 4 5 2 1 5 5 7 11 12 14 15 13 16 18 18 18 17 16 15 15 15 15 16 17 16 16 15 15 14 14 13 13 12 11 11 10 10 9 9 8 8 8 8 8 9 10 12 12 12 11 13 14 14 14 12 12 15 15 14 13
2 1 3 4 4 4 5 3 8 9 8 10 10 9 9 8 6 7 10 9 8 5 4 6 5 6 7 6 6 4 2 8 6 4 5 5 5 5 4 1 2 6 5 10 10 11 12 14 15 15 15 14 12 13 13 13 13 13 13 13 14 16 16 16 16 15 14 13 12 11 11 10 10 9 8 8 8 7 7 8 8 8 9 10 11 12 12 13 14 15 16 16 14 15 15 15 14
1 4 4 4 4 7 2 6 11 9 10 12 8 9 4 9 12 11 11 13 12 5 4 6 6 4 4 5 10 10 3 5 3 4 5 6 6 4 4 4 2 4 5 12 13 8 6 11 12 12 11 11 12 12 14 14 13 12 11 11 10 12 13 14 15 15 14 13 12 11 11 10 9 9 8 8 7 7 7 7 8 8 9 10 10 11 12 12 14 14 15 15 15 16 15 15 14
3 2 5 4 6 4 8 6 10 11 11 10 9 7 6 9 13 12 12 6 7 6 5 8 9 4 9 10 8 2 2 4 4 5 6 3 4 2 2 2 3 3 8 16 7 8 3 12 15 15 15 14 14 14 14 14 14 13 13 12 11 10 12 12 12 13 14 13 12 11 11 10 9 9 8 8 7 7 6 7 7 8 8 9 10 10 10 12 13 14 14 14 15 16 15 15 14
4 3 4 6 7 9 8 8 9 9 11 7 10 6 8 5 9 12 10 4 6 7 6 9 9 4 6 6 2 6 4 6 6 6 6 6 4 4 2 2 2 4 16 6 5 5 6 11 12 13 13 13 12 12 11 11 11 11 13 14 13 11 10 11 12 12 12 13 12 11 11 10 10 9 9 8 7 6 6 5 6 7 7 8 9 9 9 10 12 13 14 14 15 15 15 15 14
4 5 4 5 6 6 4 10 9 13 11 11 12 8 9 8 11 10 9 7 10 9 9 11 10 7 6 3 1 3 2 5 4 6 3 7 5 5 3 2 3 6 13 4 4 6 8 10 10 9 11 13 12 11 12 12 12 11 11 12 13 12 10 10 11 11 11 11 11 11 11 10 10 9 8 7 6 6 6 5 5 6 7 7 7 8 9 11 10 12 10 14 15 15 15 14 14
5 6 5 7 4 5 10 11 12 11 10 8 8 12 13 10 5 6 11 13 12 13 8 10 7 5 9 5 4 5 5 5 2 6 5 4 5 3 3 3 4 7 17 6 4 6 11 12 12 12 9 8 9 9 8 9 10 10 7 8 10 10 9 10 9 9 9 9 10 11 11 10 10 9 9 7 6 5 6 6 6 5 6 7 7 10 12 10 10 10 8 13 15 15 14 13 12
3 8 6 8 8 6 11 14 14 10 10 4 7 13 12 14 13 13 14 11 10 10 8 7 6 8 3 1 5 7 7 7 7 5 5 5 5 4 3 4 4 5 13 10 8 8 12 13 13 12 11 10 9 8 8 8 10 10 10 9 8 7 8 7 7 6 5 6 7 8 9 10 10 9 7 5 4 6 4 7 6 5 5 6 10 12 12 11 11 9 10 14 14 14 14 14 11
6 8 1 8 12 7 10 13 11 10 11 11 12 11 10 11 12 11 13 10 9 11 7 6 5 3 3 7 1 7 7 6 6 6 6 5 5 5 4 4 4 6 7 12 10 10 9 13 11 11 9 9 9 7 8 7 9 9 12 12 12 12 9 5 4 4 3 2 3 4 6 8 9 10 8 6 7 7 6 7 7 6 4 9 11 12 12 12 10 9 6 13 13 14 14 12 11
6 7 7 8 9 13 10 11 12 8 9 5 10 10 8 8 9 10 11 10 10 7 8 5 5 9 9 6 5 5 6 6 6 6 5 5 5 5 6 7 7 7 6 8 9 11 9 13 11 11 9 8 8 7 8 8 11 16 17 15 14 6 4 5 7 10 10 9 5 3 4 6 8 10 10 9 11 10 8 7 7 6 5 9 12 12 12 13 12 10 7 13 12 12 12 12 11
6 6 5 7 11 11 11 9 9 7 5 5 5 6 7 7 9 11 11 11 8 8 7 5 7 10 8 7 4 6 6 5 6 5 5 5 5 6 6 8 9 9 7 7 8 9 10 9 11 9 8 7 9 8 8 13 17 15 12 11 9 10 8 6 8 5 6 6 7 6 5 6 7 8 6 7 9 9 9 8 8 7 9 11 13 12 11 12 11 13 13 11 11 11 11 11 11
7 7 6 10 10 10 9 8 6 4 4 5 4 5 6 8 8 10 10 11 10 9 7 9 3 7 8 7 5 6 6 6 5 5 4 5 6 7 7 7 8 8 8 6 6 7 9 8 8 9 8 10 9 7 8 9 12 13 10 10 11 8 4 6 8 8 8 7 7 6 6 6 7 8 11 11 12 9 8 8 8 8 11 12 12 12 12 12 11 11 10 9 10 9 10 9 9
7 5 8 8 8 8 4 5 4 2 5 3 5 8 5 7 6 6 6 6 7 8 10 9 1 9 6 7 7 9 7 6 6 5 5 5 6 6 8 9 7 6 7 7 6 7 7 6 7 6 10 10 11 12 8 10 11 7 3 8 11 11 9 8 10 10 8 6 7 7 6 6 5 6 8 7 6 7 8 8 8 8 11 11 13 12 12 12 12 13 13 12 11 10 10 8 8
7 5 5 7 1 4 5 4 1 7 4 5 4 7 3 6 4 4 4 7 7 8 3 8 4 7 6 6 6 6 7 6 6 5 5 6 7 8 8 6 7 8 7 7 6 5 6 6 6 7 8 6 8 8 7 8 10 9 7 12 12 12 10 9 11 11 9 7 6 7 6 6 5 3 6 10 9 13 8 5 8 8 10 11 12 12 12 12 11 12 12 12 11 10 9 8 7
6 2 5 6 4 6 4 6 8 5 6 3 7 7 5 5 2 0 4 7 7 4 6 3 1 6 3 7 5 7 8 7 7 6 6 7 8 9 9 7 8 6 6 6 5 5 5 5 7 8 5 3 6 4 5 8 10 7 9 8 10 12 11 9 10 8 8 6 6 7 3 7 7 7 6 8 7 1 12 8 5 8 9 10 11 12 12 12 11 11 10 10 10 9 9 7 7
3 5 5 5 6 6 7 6 2 4 6 4 7 6 3 5 3 1 2 7 6 4 6 6 2 2 5 5 6 11 12 9 8 7 7 7 6 6 8 8 8 7 6 5 5 4 4 4 4 8 7 4 5 6 6 7 10 11 9 8 10 12 12 10 10 10 9 7 6 7 7 6 6 6 8 6 8 5 5 11 6 7 8 10 10 11 12 12 12 11 10 9 9 9 9 7 6
2 6 6 6 6 7 8 6 8 2 6 3 7 8 7 3 2 3 1 3 8 8 4 6 4 2 5 8 8 11 11 9 8 8 6 5 4 4 4 4 5 6 3 5 6 4 4 6 5 4 8 8 7 7 5 6 9 13 10 6 6 10 10 9 9 9 9 7 6 6 6 5 4 4 5 4 4 4 2 7 6 8 9 9 9 11 11 10 11 11 10 9 9 9 8 8 6
5 7 6 7 1 8 7 4 2 6 4 6 7 8 7 3 5 5 6 5 7 7 6 6 7 8 7 8 8 9 9 8 7 6 4 4 3 4 4 4 3 4 3 4 4 4 5 4 7 6 4 7 7 6 5 6 7 9 8 7 6 8 9 8 8 6 6 5 6 5 4 4 4 5 5 5 4 3 3 7 1 4 6 9 9 10 10 11 10 10 10 9 9 9 12 8 7
6 5 5 5 5 6 2 4 2 3 6 7 6 8 7 4 2 5 5 8 9 8 7 9 7 8 8 8 8 8 8 7 6 4 5 4 4 4 4 4 5 3 3 4 4 4 3 3 3 5 5 6 7 6 5 6 7 7 8 7 5 6 7 7 6 5 5 5 4 4 4 3 4 4 5 6 5 4 6 11 2 8 5 7 9 9 9 10 10 10 10 9 9 10 10 5 5
5 5 6 4 4 3 1 0 2 3 5 5 7 6 6 4 3 2 2 7 7 7 8 9 8 9 8 8 8 8 7 7 5 5 5 5 5 5 5 5 4 5 4 5 5 5 4 4 4 2 3 3 4 5 5 5 5 5 6 6 6 5 5 5 5 5 4 4 5 4 4 5 5 5 5 8 7 5 3 7 9 11 7 9 9 9 8 10 8 9 9 9 8 8 5 4 5
6 6 5 3 5 3 4 1 1 3 4 6 5 5 3 2 3 4 2 7 5 6 7 7 8 10 11 10 9 7 7 6 6 5 5 6 6 4 5 4 4 4 4 4 5 6 5 5 5 4 4 4 6 5 6 5 5 5 4 4 4 4 5 5 5 5 5 5 5 4 5 5 6 6 3 3 5 4 4 1 5 7 9 5 9 7 7 7 7 7 7 8 6 5 3 3 3
1 7 4 3 2 4 1 2 1 4 4 6 4 5 4 2 3 5 5 4 4 4 5 3 1 12 12 12 10 8 7 6 6 5 5 5 5 5 4 5 5 4 3 3 5 6 6 4 4 5 6 5 4 4 4 5 4 4 5 4 4 4 5 5 5 4 4 4 4 4 4 5 5 5 6 5 4 5 4 3 4 9 6 7 4 6 4 4 5 5 5 6 5 4 3 3 4
6 7 7 5 3 6 1 3 2 3 4 4 6 4 2 4 2 3 5 3 6 5 5 4 4 9 11 10 9 8 7 6 6 6 5 5 5 5 4 4 4 3 3 5 4 5 5 4 3 5 6 6 5 4 4 4 4 5 5 4 4 4 5 5 4 4 4 4 4 4 4 4 4 5 4 5 5 5 4 4 1 5 9 4 4 4 4 4 4 4 4 4 4 5 5 5 5
8 2 3 4 4 6 4 6 1 5 6 6 6 5 6 3 6 3 5 2 5 5 3 4 7 9 10 10 7 7 7 6 6 6 5 5 4 5 5 3 3 3 3 4 4 5 5 5 5 6 6 6 5 5 5 4 4 4 5 5 3 4 4 4 4 3 3 3 3 4 2 2 3 4 4 4 5 5 5 4 3 5 7 3 3 7 6 6 4 3 3 4 4 4 5 5 5
8 7 4 4 4 4 6 6 5 5 7 7 6 7 6 5 4 1 6 5 4 4 3 5 7 8 8 8 8 7 7 7 7 6 5 4 4 5 3 3 3 2 3 4 4 5 5 4 4 5 6 6 6 5 5 4 5 4 4 3 3 3 2 2 3 3 2 2 2 3 3 2 2 2 3 3 3 5 5 5 3 4 5 2 1 3 5 4 4 4 3 4 4 4 5 5 5
9 7 5 5 6 5 5 7 7 7 4 5 8 8 6 3 3 9 6 6 5 3 4 6 7 8 8 8 8 7 7 6 7 6 5 4 4 4 4 2 2 2 3 4 3 4 5 5 5 5 5 5 4 4 4 4 4 4 4 3 4 4 3 3 3 3 3 2 2 2 1 1 1 1 2 2 3 2 3 4 4 4 5 3 2 2 2 2 3 3 4 4 5 5 4 5 4
1 2 5 7 6 7 5 8 3 2 5 5 8 6 5 3 6 5 9 6 7 6 5 6 8 8 8 7 7 6 6 6 6 6 5 4 4 3 4 2 2 1 1 2 3 4 4 5 5 5 5 5 4 4 4 5 4 3 3 3 3 2 3 3 2 3 3 3 3 2 1 2 1 1 1 1 1 2 2 3 4 5 5 4 4 3 3 3 3 3 2 1 2 4 7 7 4
3 4 6 8 8 7 7 7 6 6 7 8 8 3 1 5 7 5 8 8 9 9 7 8 9 9 8 8 7 6 5 5 5 5 5 5 3 3 4 3 3 2 3 3 2 3 4 5 5 5 5 4 4 4 5 5 4 4 3 3 3 3 2 2 3 2 2 2 2 2 1 1 1 2 1 1 1 3 2 3 2 4 4 3 3 3 3 3 3 2 2 2 2 3 1 3 9
3 5 8 3 5 8 5 4 2 7 4 7 7 6 7 8 9 7 6 7 9 9 8 9 10 9 9 8 6 5 5 6 5 4 5 4 3 2 3 2 2 3 1 2 3 3 5 5 5 5 5 5 4 5 5 5 4 4 4 3 4 3 3 3 3 2 2 2 2 2 2 3 1 2 2 1 1 1 2 3 2 2 2 1 2 4 4 4 3 3 3 3 2 2 2 0 1
4 6 6 6 7 8 6 3 2 7 5 7 7 9 9 11 10 7 7 7 9 10 10 10 10 9 9 8 6 6 6 6 5 5 5 4 4 4 4 4 3 2 2 3 3 4 4 3 3 4 4 4 4 4 3 4 4 4 4 4 4 3 3 3 3 3 2 2 1 2 2 2 1 1 1 1 1 0 1 1 1 1 2 2 2 1 2 2 3 3 2 3 2 2 2 0 1
6 2 4 6 4 7 8 1 3 6 5 6 6 9 6 10 11 9 8 8 10 11 11 11 11 11 10 8 7 6 7 5 6 6 5 4 4 4 4 4 4 3 2 3 4 5 5 4 4 4 4 5 5 5 4 5 5 5 4 5 4 3 4 4 4 3 3 2 2 2 1 2 2 3 3 1 1 2 2 1 1 1 2 2 1 1 1 1 1 2 1 1 2 2 2 1 1
4 7 9 6 8 7 7 3 2 5 7 6 6 8 10 2 6 10 8 9 10 10 10 11 11 11 10 9 8 7 6 7 7 7 5 5 4 4 4 4 4 4 3 3 4 3 5 5 4 5 6 6 6 6 6 5 5 4 4 4 4 4 4 4 3 4 4 3 3 3 3 2 2 1 2 3 3 2 1 2 3 3 3 1 1 1 1 1 1 1 1 1 2 3 1 0 0
5 7 1 3 5 0 5 7 5 3 5 6 9 8 5 9 3 4 7 9 9 10 10 11 13 13 11 9 8 7 8 7 7 8 7 5 5 4 4 4 4 4 3 4 5 5 5 6 4 6 6 6 7 7 7 6 5 5 5 4 4 5 4 4 4 4 4 3 3 3 4 4 4 3 3 3 2 3 2 2 3 3 2 2 2 1 1 1 1 1 1 0 0 1 1 2 2
5 4 7 1 6 2 5 9 4 4 4 4 6 8 9 8 2 6 6 7 10 10 11 11 11 10 10 9 9 8 8 8 9 9 9 8 6 6 4 4 4 4 4 4 4 4 5 5 5 6 6 6 6 6 6 6 7 7 6 6 5 5 5 4 4 4 4 3 3 3 3 3 3 4 3 3 2 2 2 2 3 2 3 2 1 2 1 1 1 2 2 1 1 1 1 2 1
3 2 6 7 8 7 6 2 9 4 4 6 4 8 9 9 10 5 5 6 8 10 11 11 11 11 11 10 10 10 9 9 8 9 10 9 8 7 6 5 5 5 4 4 5 5 5 5 4 6 5 5 6 6 6 7 8 7 7 7 7 6 5 4 3 3 4 3 4 4 3 2 2 2 3 2 2 1 2 2 2 3 2 2 1 1 1 1 2 3 2 2 2 1 1 1 1
8 7 5 5 4 7 8 2 3 4 6 8 8 8 8 9 9 6 5 6 9 10 11 10 11 11 11 10 10 9 8 8 7 9 11 9 8 8 6 6 6 5 5 4 5 5 6 6 6 6 6 6 7 7 7 6 6 6 6 6 6 5 5 4 3 4 3 4 4 4 3 3 3 2 3 2 1 1 1 1 1 2 2 1 1 1 2 2 2 2 2 1 1 1 1 1 1
5 6 7 8 7 6 4 5 2 1 6 10 10 8 9 8 6 2 3 6 8 10 11 11 11 11 11 11 10 8 7 7 8 10 10 10 10 9 8 6 6 6 5 5 6 6 6 7 7 8 7 8 6 6 6 5 5 5 5 5 5 5 5 5 4 4 4 5 4 4 3 3 3 3 2 2 2 1 0 0 1 2 2 2 1 1 3 2 2 1 2 2 2 1 2 0 2
6 6 6 8 8 8 3 2 5 2 6 4 3 6 7 8 6 2 2 6 8 8 9 11 11 10 9 10 9 8 7 6 10 9 10 10 10 11 9 7 7 8 7 6 7 7 7 7 8 8 7 7 6 5 4 4 4 4 4 4 5 5 5 5 5 5 4 4 4 4 3 3 3 2 3 3 2 2 1 1 0 1 1 1 1 2 4 4 4 2 1 0 1 4 3 4 3
6 6 6 6 7 6 3 1 3 3 5 6 3 6 7 6 3 2 4 5 4 4 6 8 10 10 8 8 8 8 9 8 9 9 10 10 11 11 9 7 7 7 8 8 8 8 8 7 7 7 6 6 6 5 5 4 4 4 3 4 3 4 4 4 5 5 5 4 4 3 3 2 2 2 2 2 1 2 1 1 1 1 2 1 2 3 4 4 4 4 3 2 2 2 3 3 3
6 6 6 8 4 2 6 7 6 4 5 4 1 6 7 4 3 3 2 3 3 2 3 4 5 8 9 8 8 8 10 8 9 10 11 11 11 10 9 9 8 7 8 8 8 9 8 7 7 7 7 6 5 6 4 6 6 6 5 4 4 3 4 5 5 4 5 4 4 3 3 2 3 2 3 2 3 3 2 2 1 1 1 0 1 1 1 2 2 3 3 3 3 3 3 3 3
2 6 6 5 3 3 7 3 4 3 6 5 6 7 9 5 6 7 5 2 1 1 0 1 3 4 3 2 3 4 7 7 7 9 10 10 11 11 10 10 9 8 9 9 9 9 6 8 8 8 6 6 6 6 6 7 7 7 6 6 5 5 5 4 4 3 3 3 3 3 4 3 3 3 2 2 3 3 3 3 3 3 3 3 2 2 3 3 2 2 1 2 3 3 4 3 3
0 6 7 8 7 7 6 4 6 8 8 6 5 8 9 6 4 1 2 2 7 7 6 6 4 2 2 5 5 4 5 4 4 7 9 10 10 10 10 11 10 9 9 9 8 8 7 7 8 8 6 5 6 7 8 7 6 6 6 5 5 4 4 3 3 3 3 3 4 4 4 4 4 3 3 3 4 3 3 3 3 3 3 3 3 3 2 2 2 2 3 2 2 2 3 5 3
9 5 7 7 8 7 6 8 6 8 9 6 3 8 5 7 7 2 2 5 11 11 13 13 10 7 3 2 3 5 7 7 7 6 8 10 10 10 11 11 10 9 8 9 8 8 8 7 7 8 6 6 6 7 8 6 7 6 6 5 4 3 3 3 3 3 3 3 4 4 4 4 4 4 4 4 4 4 3 3 3 3 3 3 2 2 2 2 2 3 3 3 3 3 4 4 4
4 6 9 9 7 7 8 8 8 8 6 2 6 7 9 8 3 4 2 9 8 12 14 15 14 13 13 9 5 6 7 8 9 10 10 9 10 11 12 11 10 9 8 8 8 8 8 8 8 8 6 6 6 6 8 6 6 6 6 5 4 4 3 5 4 4 3 4 4 4 3 3 3 3 3 3 4 4 3 3 3 2 2 2 1 2 1 2 2 2 2 3 3 3 4 4 5
7 9 10 9 7 7 8 8 8 8 6 7 7 6 9 8 5 6 6 6 11 14 14 15 15 15 14 13 11 8 7 8 9 9 10 11 11 11 11 12 11 11 10 8 8 8 8 8 8 8 7 6 6 7 7 7 5 6 6 5 5 4 5 5 5 4 4 4 4 3 3 3 3 2 2 2 2 3 2 2 2 2 2 1 0 1 1 2 2 2 2 2 2 2 3 3 4
6 12 11 7 8 8 7 8 7 6 6 8 6 5 7 4 7 4 7 8 12 12 13 14 15 16 15 14 13 11 7 6 8 9 9 10 10 11 11 11 12 11 10 10 8 7 9 8 9 9 8 6 6 7 7 7 6 6 6 6 7 6 6 5 5 5 5 4 4 4 3 3 3 3 2 2 2 2 2 2 2 2 1 1 2 3 1 1 1 2 2 2 1 1 2 3 3
9 11 13 10 7 8 8 6 6 5 8 7 2 4 6 7 6 7 7 8 9 10 9 12 14 14 15 15 15 13 11 5 3 5 7 8 9 9 11 11 12 11 9 9 9 9 9 9 9 9 9 7 7 7 7 7 6 6 6 7 8 8 8 7 6 6 5 5 4 4 4 3 3 3 3 2 2 3 2 2 2 2 2 1 1 1 1 2 2 1 1 1 1 2 2 3 3
8 7 7 6 6 11 12 6 8 9 6 8 3 3 3 11 4 5 7 8 9 10 12 14 15 15 14 14 15 15 13 10 7 3 4 6 6 8 9 10 11 11 10 10 10 10 10 9 10 11 10 9 7 8 8 8 8 7 6 8 9 9 9 7 7 7 6 6 5 5 4 4 4 3 3 3 2 2 2 2 2 2 3 2 1 1 1 1 1 2 2 2 2 2 2 2 3
6 6 4 6 3 0 3 1 6 8 5 5 4 6 5 4 5 7 8 9 10 10 10 12 13 14 13 14 15 14 14 12 9 6 4 4 4 7 8 9 10 11 11 11 11 11 11 11 11 12 11 10 8 9 9 9 8 7 7 8 8 8 9 8 8 7 6 6 6 5 5 5 5 4 3 3 3 2 2 2 2 2 2 2 2 2 1 1 2 2 2 3 2 4 3 3 4
5 4 3 2 2 3 4 4 2 4 2 2 2 4 1 7 6 6 7 9 11 11 12 12 12 13 12 13 13 13 13 14 12 11 8 5 5 4 5 8 9 9 10 9 11 12 11 11 12 12 12 10 9 9 9 9 8 7 7 7 8 8 9 8 7 7 7 6 5 6 5 5 5 4 4 3 3 3 3 3 2 3 2 2 2 2 2 3 3 4 3 3 4 4 4 5 5
5 4 5 4 4 4 3 2 3 1 4 5 5 5 4 8 4 7 8 8 11 11 12 11 12 12 12 11 12 13 13 13 12 11 10 9 7 6 4 4 5 7 9 10 9 10 10 11 12 13 12 11 10 9 8 8 7 7 7 7 7 7 8 8 7 7 7 7 6 6 5 5 5 5 4 3 3 3 3 3 3 3 3 3 3 3 3 1 3 4 4 3 4 3 4 5 5
1 4 4 4 3 2 5 3 6 5 1 4 6 1 3 4 5 9 9 9 11 13 15 15 15 14 13 11 12 13 12 12 12 12 11 12 9 6 5 4 4 6 9 9 11 10 9 11 11 11 12 11 9 9 8 7 7 7 8 8 8 8 8 8 7 7 6 6 6 6 6 5 5 5 4 4 4 3 3 3 3 4 2 3 3 3 3 4 4 4 4 4 5 3 4 5 5
5 5 3 6 1 5 4 3 2 2 4 0 3 5 6 7 4 12 13 13 15 17 17 16 16 16 15 13 13 13 13 12 11 11 11 12 10 8 5 5 4 5 7 9 10 11 12 12 11 11 11 9 9 6 6 6 6 7 8 9 9 8 9 9 9 9 8 7 7 6 6 6 6 5 5 4 4 4 3 2 3 2 1 1 2 3 4 4 4 4 3 4 4 4 5 5 4
5 2 6 6 4 7 4 3 1 3 3 1 2 2 4 4 2 9 14 15 16 16 16 15 15 15 15 14 14 14 14 13 12 11 11 12 11 8 7 5 5 5 6 8 10 9 9 10 11 12 13 10 9 6 8 7 8 8 8 9 9 8 8 9 9 10 9 8 7 7 6 6 6 5 5 5 5 5 4 3 2 2 1 1 2 3 4 4 5 5 4 5 4 4 5 5 4
7 6 2 6 1 3 3 2 3 2 1 0 4 4 7 5 5 10 12 12 14 15 14 15 16 16 15 14 15 15 14 13 12 12 11 12 12 10 6 6 6 5 3 4 4 5 6 8 10 8 9 11 13 9 9 9 9 7 7 8 9 9 8 9 9 10 9 9 9 8 7 7 6 6 5 5 5 5 4 3 2 2 1 1 2 3 4 4 5 5 5 5 4 4 5 5 4
4 5 1 3 4 3 3 2 3 5 2 1 2 3 2 6 5 8 10 10 10 9 11 12 13 13 13 13 13 14 13 12 12 12 11 11 12 12 8 5 5 4 3 2 2 1 2 4 2 8 9 11 10 10 9 10 10 9 8 9 9 9 9 9 9 9 9 9 9 8 8 7 7 6 6 6 5 4 4 3 3 2 2 1 2 3 4 5 5 5 5 5 4 5 5 4 4
6 5 5 5 4 2 4 1 3 4 4 3 3 1 4 5 5 7 9 10 10 11 11 10 9 11 11 12 12 12 12 12 12 11 11 10 11 12 11 6 5 5 4 3 4 3 4 5 6 9 10 11 11 10 9 9 8 10 10 11 10 10 10 9 9 9 8 8 8 8 7 6 7 6 6 6 5 4 4 3 3 2 2 2 2 3 3 5 5 5 4 4 5 4 5 4 3
7 6 6 6 7 2 3 2 1 2 3 2 3 2 6 5 3 6 8 8 9 9 10 10 10 10 10 10 11 11 11 12 12 11 10 9 10 10 10 9 4 3 3 5 4 3 4 5 6 8 9 9 10 9 8 9 9 10 11 11 11 9 9 9 9 9 8 8 8 7 7 7 7 6 6 6 5 4 3 3 3 2 2 2 3 3 3 4 5 5 3 2 3 4 4 4 4
Wind_Direction
226 219 291 248 252 256 263 227 259 188 270 256 258 242 255 315 311 273 246 225 260 224 346 296 275 299 306 323 277 282 282 276 358 293 321 63 97 90 141 29 94 138 134 132 116 112 107 121 141 148 153 158 156 154 150 147 146 145 145 142 139 135 131 132 131 133 134 136 135 131 129 132 133 134 137 140 143 143 141 140 141 141 140 139 141 140 137 130 127 128 124 123 138 121 121 120 118
216 260 233 231 247 245 216 303 269 258 231 254 251 263 253 249 244 246 263 266 260 300 348 308 309 310 288 285 268 209 255 298 342 44 94 87 122 114 109 60 134 147 138 109 75 92 128 150 157 158 153 148 140 138 137 138 138 140 140 142 140 136 135 137 137 138 137 137 133 129 130 131 133 135 138 141 144 143 144 143 143 141 142 141 142 142 141 137 137 135 137 142 130 119 117 117 118
238 241 194 211 231 245 281 221 257 252 256 258 254 241 222 250 247 248 248 246 264 307 313 296 310 278 273 260 250 238 142 239 114 85 93 124 134 74 31 40 124 124 110 85 91 114 187 149 151 143 139 138 137 138 133 134 134 134 134 135 139 138 135 134 138 139 139 136 132 131 131 131 133 136 139 142 144 146 147 147 144 143 141 140 140 142 144 142 139 138 135 132 126 120 118 119 122
273 263 263 211 225 216 245 222 254 262 258 254 257 253 191 244 256 256 255 298 292 282 276 281 275 74 288 258 272 300 139 177 33 106 132 118 48 109 60 21 82 113 80 76 135 173 154 152 150 146 149 151 150 142 139 136 135 136 138 139 141 144 141 139 139 140 138 135 132 129 131 134 139 141 142 144 148 153 153 152 147 145 138 139 139 142 147 145 143 139 135 130 124 122 121 125 126
240 196 248 243 268 227 244 247 262 265 259 268 276 282 263 233 277 270 267 272 275 281 280 291 286 149 307 272 53 261 89 76 119 16 98 73 12 70 83 58 124 106 74 118 160 127 149 142 139 142 143 142 136 133 127 126 128 135 140 144 143 143 143 141 141 141 138 135 129 132 134 138 141 147 148 151 156 156 157 153 150 145 142 134 139 141 146 147 139 134 132 128 125 124 126 129 130
213 212 203 247 244 3 263 252 239 243 262 272 268 268 288 317 302 304 297 273 274 286 285 281 272 272 225 211 21 240 22 182 86 73 339 74 38 357 58 69 110 98 96 101 140 132 149 135 122 120 136 137 131 133 132 137 139 139 140 143 138 137 138 138 141 141 139 135 134 136 141 143 148 150 147 146 149 159 162 157 150 150 142 137 139 146 128 116 131 129 139 128 126 127 130 131 133
183 203 187 211 233 232 256 254 260 263 259 269 276 278 289 287 301 294 280 279 268 276 276 261 247 238 250 149 163 69 42 20 218 65 19 66 58 39 29 87 87 89 108 128 128 144 147 144 136 139 141 123 123 131 136 131 125 114 106 116 120 120 127 136 136 142 142 137 142 144 147 150 151 147 150 150 159 165 164 160 157 150 144 142 131 108 113 129 129 127 135 132 130 130 129 133 137
253 245 183 219 227 203 241 253 260 268 263 329 296 292 291 289 282 277 277 270 267 257 210 233 217 249 54 72 208 101 79 47 73 84 79 62 63 62 82 90 92 80 111 121 120 122 131 140 145 148 147 138 135 140 135 115 97 98 105 79 62 94 108 110 122 134 138 135 142 150 152 156 154 141 119 132 162 160 174 155 149 141 148 124 119 116 126 136 132 129 152 135 133 131 131 135 139
183 237 100 253 249 226 250 255 267 263 281 275 275 276 275 274 273 269 260 247 259 245 229 178 198 208 157 184 153 118 91 96 85 83 80 74 79 69 67 88 77 76 78 117 131 128 127 125 136 141 148 144 145 129 113 97 85 59 69 65 65 38 13 43 111 131 133 137 143 158 161 156 152 134 150 156 176 176 170 148 140 137 135 122 117 121 127 129 131 138 156 139 140 136 136 141 140
188 235 195 234 246 248 247 247 249 255 278 298 287 290 284 284 269 254 257 249 232 217 229 222 145 239 124 191 126 163 111 123 119 89 76 86 84 95 74 69 74 70 65 94 126 117 120 128 132 138 151 140 130 115 95 80 73 68 66 56 71 80 307 73 46 27 16 360 317 203 179 164 148 131 156 172 189 173 166 150 137 127 127 130 120 125 127 131 136 143 147 145 143 137 140 143 143
205 197 290 234 225 245 248 256 246 248 258 280 273 262 288 298 281 266 255 253 243 237 200 194 196 213 199 162 101 77 101 132 158 100 92 82 88 89 84 78 74 68 72 70 101 117 127 124 128 132 133 126 89 76 68 60 77 82 100 139 132 153 177 117 103 121 155 172 257 221 189 167 145 141 154 163 218 172 162 155 144 134 128 132 127 131 133 135 142 144 147 148 143 143 148 148 148
221 206 185 232 237 239 239 254 275 293 280 239 236 348 340 308 284 261 245 234 222 217 218 186 209 174 197 166 152 134 120 113 99 101 102 107 91 83 82 84 75 77 73 70 83 98 104 126 128 122 114 89 86 87 85 119 106 118 151 134 132 175 181 123 139 164 181 189 225 235 183 175 166 160 168 167 207 175 165 163 150 143 139 140 132 134 135 134 139 138 134 139 142 146 146 149 147
248 192 207 231 237 233 262 277 252 314 238 95 345 357 325 291 269 288 276 252 199 200 208 193 85 198 170 192 115 130 131 105 104 111 119 108 98 88 80 88 87 83 82 79 78 96 104 108 116 124 101 114 114 136 157 116 116 119 111 118 147 150 158 156 166 171 190 175 213 230 180 179 175 167 170 177 195 175 171 168 151 147 142 146 137 139 138 142 141 138 145 153 147 146 149 143 146
244 208 225 229 208 266 243 254 168 212 153 39 40 335 343 337 345 292 241 206 188 203 150 165 189 191 179 110 158 156 119 109 113 113 112 106 88 85 88 88 96 93 83 78 74 85 90 93 96 79 111 140 157 154 117 116 123 140 154 167 162 160 160 168 168 170 176 186 235 224 185 174 178 138 79 61 21 342 332 184 151 154 148 148 141 138 137 136 141 142 147 146 144 142 143 147 149
247 188 246 256 223 226 209 227 180 209 84 20 40 351 341 51 15 202 202 174 134 67 105 152 154 209 138 227 163 159 128 130 124 118 109 105 105 100 93 93 83 86 92 91 90 73 81 76 87 96 120 158 141 133 123 132 143 151 176 174 163 161 168 157 159 165 169 195 241 223 150 84 74 80 80 89 104 101 302 243 160 152 156 150 142 140 139 140 144 140 139 139 141 142 148 152 157
239 208 234 228 220 228 147 220 116 217 85 356 20 354 307 77 19 306 84 333 120 130 175 154 223 293 116 169 102 100 118 128 120 120 120 119 119 119 114 100 94 82 83 75 77 63 62 77 95 122 124 128 135 134 120 125 131 150 169 171 153 164 168 160 156 159 175 167 130 116 106 119 125 111 96 117 124 158 232 262 160 157 158 144 142 139 141 144 144 144 142 146 149 148 145 152 157
216 253 210 225 217 213 134 201 178 134 62 43 5 8 354 56 69 61 18 201 137 136 132 73 114 53 53 78 104 108 111 110 125 131 135 140 149 124 123 125 112 96 72 66 66 67 63 77 84 85 124 127 117 122 127 117 132 146 158 168 150 164 156 155 162 164 163 146 132 117 115 135 134 128 128 120 137 198 232 255 180 169 158 146 143 141 141 143 144 144 150 149 152 148 147 148 153
201 212 229 209 236 199 139 180 146 53 328 14 358 358 344 78 133 115 168 146 123 139 133 121 88 76 82 101 104 105 116 129 132 142 133 132 155 125 116 99 102 79 80 94 73 74 75 80 81 91 103 116 123 118 115 117 129 151 142 143 149 154 161 158 163 161 168 153 122 132 150 130 152 121 131 134 148 46 23 268 160 179 164 150 147 148 150 146 150 150 153 157 154 160 165 170 158
218 221 238 223 193 75 60 54 43 316 10 343 346 8 345 32 314 128 224 133 145 149 142 160 126 107 112 112 109 120 126 121 134 127 125 105 88 84 78 89 80 96 95 90 77 70 84 79 79 78 107 116 124 123 124 125 132 139 146 149 139 144 152 165 164 165 169 153 147 139 142 145 130 120 145 142 123 85 66 300 148 247 171 167 155 153 156 157 156 157 159 163 167 185 203 206 182
221 253 208 243 62 59 216 91 309 319 339 326 347 3 337 34 320 88 231 134 163 162 154 176 172 148 139 128 131 128 136 129 120 120 107 95 84 80 77 75 85 83 99 89 97 90 91 102 104 156 156 124 119 115 118 123 134 149 145 147 148 141 151 162 163 163 165 149 147 157 157 155 133 126 130 135 120 114 93 261 227 215 216 181 174 168 161 160 165 164 168 166 191 209 213 184 193
137 239 242 71 72 226 144 237 322 328 319 321 330 342 297 100 330 254 124 153 169 133 151 176 178 158 144 141 136 133 130 125 124 110 98 85 74 69 69 64 69 85 91 108 106 99 94 104 110 115 114 115 112 120 130 130 145 149 134 136 139 150 152 163 165 166 168 166 161 164 163 155 138 133 150 147 125 121 114 16 283 242 218 167 187 218 180 162 190 183 174 193 207 213 200 208 207
77 232 286 325 155 247 115 245 311 313 328 300 302 302 45 52 241 233 224 198 130 78 119 103 277 148 146 147 145 144 141 136 126 113 97 83 81 78 81 87 88 105 112 126 98 95 85 72 111 125 121 116 119 127 127 120 143 131 131 131 143 157 162 162 160 163 168 166 170 159 153 155 144 145 157 147 135 111 105 154 232 264 254 195 167 231 178 157 187 187 198 199 203 214 210 211 207
232 190 242 236 266 277 17 262 276 280 279 281 297 0 311 248 210 234 262 303 82 18 26 63 63 114 127 133 143 146 141 129 118 107 102 102 100 90 93 104 115 122 127 85 99 108 113 120 147 124 125 132 122 116 125 141 128 120 132 141 156 156 161 157 157 164 169 170 171 150 163 166 157 149 152 147 135 127 155 215 151 314 277 270 201 217 178 176 217 188 189 228 210 217 212 209 207
258 285 129 224 238 245 259 270 239 257 267 277 294 302 261 217 232 164 238 228 68 43 36 95 105 115 130 135 145 140 132 123 113 102 99 98 103 110 110 106 93 105 109 112 120 123 119 129 146 144 137 136 133 137 131 126 122 117 118 141 167 124 148 154 153 156 148 175 153 147 180 201 159 153 146 149 150 156 176 182 189 210 253 242 342 300 182 204 187 207 238 234 224 229 221 226 225
228 238 219 261 269 265 258 263 262 265 260 268 264 259 240 228 289 241 228 215 141 72 111 126 129 137 144 141 135 129 123 122 116 106 95 91 106 108 112 115 130 134 118 124 120 128 118 117 131 130 130 129 126 130 128 120 118 124 131 137 120 152 137 125 128 129 135 126 136 149 156 161 162 143 140 158 163 169 170 171 191 226 257 224 163 255 332 281 210 218 220 236 220 225 229 222 233
216 256 274 273 255 257 261 266 259 247 252 247 242 237 231 233 314 256 239 195 148 126 155 157 149 152 154 146 136 140 134 125 119 117 111 103 115 133 138 154 134 182 123 121 138 115 119 135 123 113 111 111 122 131 116 117 118 123 124 114 118 150 124 137 148 129 125 124 111 116 117 127 150 153 148 163 177 175 180 190 193 215 238 242 204 216 203 280 261 238 230 238 237 218 225 233 234
336 280 270 276 285 280 270 268 269 184 240 216 231 217 212 169 223 204 192 165 166 170 173 174 179 171 162 155 139 131 128 121 123 112 121 126 138 149 145 169 163 174 145 149 143 136 136 142 120 117 111 126 135 131 122 121 121 109 112 126 138 128 125 135 126 119 114 114 106 101 114 105 94 90 109 118 157 180 222 223 191 219 233 239 233 214 184 220 248 244 251 280 289 349 321 320 245
275 308 289 257 250 253 254 253 242 218 208 207 224 201 154 176 216 275 134 158 183 194 187 189 198 180 171 156 145 128 125 122 121 125 141 156 159 164 162 181 181 198 199 168 157 130 152 134 120 121 128 140 145 141 138 134 129 121 129 126 116 115 133 125 117 97 83 92 107 122 118 99 97 96 104 172 184 175 184 218 210 224 210 215 256 251 228 227 233 238 243 256 297 313 272 307 299
301 288 266 244 235 241 196 256 168 210 159 188 197 177 184 176 222 198 145 159 183 202 201 197 200 188 174 161 145 144 134 130 130 143 152 166 148 145 178 181 189 198 179 172 129 171 138 127 138 135 141 153 149 143 140 140 127 130 135 123 118 125 110 107 99 88 84 57 47 63 73 73 59 93 93 67 68 143 175 205 179 200 182 209 234 235 234 232 231 217 212 223 233 252 254 152 48
262 233 287 257 211 214 132 164 175 220 102 187 187 231 200 190 210 154 156 169 183 201 209 201 197 189 180 169 162 145 137 140 147 149 155 162 165 166 192 174 192 209 169 150 164 164 124 146 131 135 146 160 140 127 137 142 132 133 128 125 134 149 142 129 113 120 121 107 143 94 72 92 105 46 106 127 128 149 207 206 145 145 99 115 117 142 164 194 214 215 195 204 172 191 236 342 23
242 89 255 265 223 181 123 151 141 211 111 187 219 254 242 167 193 156 159 184 191 204 208 205 199 192 183 174 173 159 156 152 148 155 154 164 171 175 195 166 186 188 172 147 172 146 146 133 142 139 150 136 152 143 141 132 138 143 144 143 144 148 126 116 121 126 134 144 192 138 162 137 160 148 144 82 115 158 178 140 90 43 46 67 90 122 154 157 185 189 221 199 147 166 189 190 223
240 233 209 201 243 131 123 123 181 253 128 189 220 244 261 212 145 148 166 191 206 220 208 206 203 193 181 173 171 164 155 152 150 157 167 167 184 180 186 171 178 169 184 145 148 137 146 141 141 132 144 141 139 131 124 121 125 124 110 101 117 116 120 119 124 118 117 126 121 121 123 112 124 134 129 143 139 131 129 105 79 59 46 42 63 2 272 95 100 164 201 228 160 131 134 160 86
200 249 294 211 206 190 165 124 127 50 128 157 235 261 231 240 110 149 175 195 210 226 219 209 207 197 182 178 173 170 152 157 164 166 170 176 175 188 177 175 169 158 151 143 155 156 151 137 151 135 137 136 126 126 124 123 125 118 105 95 99 104 105 105 109 119 122 119 122 114 116 127 127 119 117 107 97 111 126 101 78 78 72 51 14 7 347 3 280 202 171 229 314 146 104 90 29
220 194 253 236 247 171 210 117 137 144 275 177 188 247 252 282 186 151 174 207 210 222 226 215 212 200 188 182 178 175 170 169 175 174 166 173 167 180 173 164 162 154 143 158 147 156 147 144 153 139 130 131 127 123 123 130 125 124 127 123 112 105 100 105 108 105 103 107 109 99 109 116 123 129 131 119 103 111 121 109 98 86 87 83 61 348 6 5 342 278 193 184 254 215 198 138 145
336 219 230 214 221 245 321 256 107 232 205 269 220 239 261 248 254 195 183 205 227 227 225 221 210 203 192 189 187 183 180 179 175 170 164 166 160 169 165 165 169 148 153 154 150 155 158 152 146 127 128 125 122 127 131 127 131 130 127 129 128 123 112 97 100 97 88 87 81 88 79 65 74 73 85 109 118 119 117 111 118 124 123 127 134 124 128 137 183 219 188 165 204 227 78 60 170
262 261 274 314 255 187 216 200 87 289 262 243 234 247 232 230 225 200 158 198 222 231 227 224 213 203 200 198 195 190 186 177 157 159 160 161 159 160 168 165 160 148 160 160 155 167 167 157 153 143 146 141 138 146 147 145 145 145 138 140 132 119 118 113 99 92 86 73 71 68 62 55 53 48 43 37 68 96 108 119 129 120 128 134 188 191 169 228 286 279 232 183 170 74 97 258 187
260 241 243 233 243 261 244 243 67 218 268 245 254 245 258 268 262 229 186 196 217 225 222 214 211 206 203 202 197 184 176 172 142 150 158 157 154 158 166 164 161 159 159 161 169 168 166 163 156 154 150 154 158 160 160 158 150 139 144 133 131 138 119 118 114 95 83 74 61 60 52 52 53 48 29 23 19 23 328 144 199 209 207 216 207 123 144 144 158 263 312 315 352 293 260 317 351
238 232 231 222 218 243 195 297 122 177 253 228 179 255 246 244 240 238 221 220 227 222 221 221 224 216 206 203 195 181 169 138 143 153 156 155 157 158 164 166 165 170 163 171 172 167 170 164 167 160 161 167 167 165 148 150 157 139 143 141 138 129 136 132 116 107 93 88 78 65 53 43 39 49 59 67 55 350 328 305 334 251 217 210 216 166 162 169 179 210 252 291 17 346 352 348 4
223 248 209 245 230 228 265 162 151 165 235 238 140 248 244 229 246 156 242 246 246 248 236 227 219 210 207 198 193 184 177 167 169 163 162 165 161 161 165 167 170 175 164 174 174 172 169 173 172 169 174 175 168 162 164 153 132 107 110 117 110 96 71 75 90 91 94 91 81 75 62 35 17 40 45 67 65 56 30 352 307 289 278 275 221 207 203 197 211 222 217 218 207 196 252 297 298
243 218 224 229 74 266 203 145 160 163 251 294 248 258 245 220 222 235 249 254 241 200 236 217 222 229 215 210 203 197 191 180 179 174 173 169 168 164 166 171 169 174 168 178 179 177 175 184 180 181 177 184 165 163 153 124 115 108 105 100 93 91 107 104 107 112 108 108 91 54 45 36 25 17 32 40 59 68 54 45 43 26 43 307 313 297 271 261 248 230 237 244 251 259 222 226 201
112 312 308 300 356 228 286 133 185 194 202 251 255 240 241 214 185 159 124 110 323 63 73 322 241 247 289 318 242 216 219 195 191 183 178 175 173 174 174 170 167 176 178 178 181 184 181 187 186 188 183 184 167 158 148 135 132 126 118 112 107 111 130 135 137 117 103 90 91 83 70 51 47 58 66 53 81 74 58 50 44 47 47 50 61 65 52 35 6 9 331 286 263 275 278 243 202
10 71 8 345 327 311 275 292 255 230 221 182 259 255 238 190 212 85 104 132 60 44 32 31 34 14 242 232 236 238 231 228 210 203 189 184 181 173 175 173 177 178 180 178 183 188 185 190 188 189 185 183 169 161 155 154 151 145 146 148 150 151 146 158 145 138 137 117 88 90 76 67 66 63 71 74 72 80 77 66 53 58 59 52 44 48 67 87 49 35 30 352 334 346 277 269 267
268 56 2 344 319 293 285 261 245 250 254 154 254 265 254 173 226 125 40 63 64 57 49 40 26 14 340 291 260 235 227 219 208 210 202 190 186 178 178 179 181 181 180 175 180 190 194 193 190 189 190 182 174 168 168 168 160 160 164 162 154 155 138 105 86 95 102 109 108 97 88 74 77 74 62 78 82 79 81 77 78 74 76 69 61 49 47 18 20 21 4 20 352 342 333 303 288
296 25 349 320 311 298 290 290 267 274 290 243 237 256 265 243 156 62 72 88 57 43 42 31 26 18 14 354 302 257 242 223 214 204 206 198 191 187 184 180 180 180 175 179 181 186 196 197 195 195 195 188 181 176 181 183 172 167 166 160 150 154 140 132 139 124 113 116 115 118 115 105 83 75 78 73 90 94 85 91 89 75 65 64 66 76 47 27 11 43 17 3 352 339 329 314 308
357 348 329 303 300 311 294 270 269 272 288 262 251 230 256 253 150 84 13 74 28 32 30 26 23 19 17 11 358 323 263 245 232 218 203 198 192 191 187 182 180 176 174 179 185 184 189 198 201 203 204 196 185 187 192 189 190 172 170 162 153 135 135 144 145 143 138 128 127 117 99 101 93 74 77 88 75 81 91 78 67 65 48 39 350 101 25 25 360 358 348 350 346 342 334 324 302
352 324 302 279 271 275 269 254 261 266 243 260 258 219 262 228 49 62 60 35 21 13 24 25 21 20 18 12 7 2 322 256 236 230 226 211 198 190 188 182 174 174 174 172 181 188 190 192 197 201 207 205 193 192 201 197 193 184 178 168 156 146 148 147 153 144 145 150 133 133 132 127 120 124 109 87 89 86 72 77 82 70 77 34 339 19 33 312 339 336 352 343 328 308 314 311 317
300 296 292 280 278 251 233 243 247 239 246 252 30 317 279 263 63 30 27 23 15 4 22 22 21 22 23 17 13 14 11 336 249 236 234 227 217 198 182 180 181 180 171 172 187 198 193 192 195 200 204 203 196 197 201 200 199 198 188 173 165 156 154 156 153 158 152 156 143 136 132 122 117 112 117 117 105 96 88 61 40 65 71 57 28 33 358 353 3 358 349 322 321 329 330 321 288
300 277 273 308 284 336 276 271 217 234 223 104 58 16 216 261 108 64 43 52 29 16 18 18 17 21 22 23 18 16 22 21 5 338 252 233 217 215 203 190 183 180 172 177 195 202 200 196 196 204 206 209 202 204 203 205 208 205 200 181 170 163 159 162 164 159 161 153 146 142 135 135 130 129 134 120 123 112 104 93 85 57 51 24 45 56 14 33 6 343 330 326 321 314 283 282 288
318 304 251 247 269 60 269 58 252 216 229 90 42 16 221 91 46 27 45 31 26 23 18 15 15 19 22 27 28 27 18 19 22 17 349 305 257 235 220 203 198 198 200 200 203 204 204 205 201 202 206 201 206 204 204 206 208 207 201 189 174 166 166 164 162 160 155 151 151 147 148 137 141 141 136 131 116 116 102 82 54 41 51 53 22 3 32 23 339 290 318 304 310 301 304 301 294
323 336 1 255 251 196 245 245 266 293 169 162 62 59 342 100 95 25 37 39 29 21 17 16 16 17 19 25 27 31 34 27 22 12 9 355 323 285 234 235 227 212 200 197 213 214 208 209 207 205 205 202 204 206 205 204 203 203 200 197 179 171 168 165 162 158 156 152 150 150 149 141 135 133 134 128 116 117 91 80 67 62 47 52 44 30 8 354 349 316 313 302 308 301 295 293 280
349 343 305 343 318 318 279 277 233 209 51 119 138 206 170 202 84 27 18 28 28 23 21 16 18 18 15 18 23 26 29 34 32 20 8 4 347 338 310 259 241 223 207 203 217 219 215 211 211 209 204 201 204 207 205 200 197 199 198 199 188 181 168 163 160 154 154 152 152 150 143 142 138 134 131 126 129 113 105 81 73 82 73 55 46 27 351 2 353 318 310 318 301 294 297 293 289
318 329 280 251 10 4 302 353 305 1 355 173 163 157 106 113 121 29 15 7 10 7 15 11 13 13 13 20 20 16 19 24 24 29 21 2 346 343 320 294 249 225 216 215 215 211 217 222 215 214 210 198 197 201 201 199 200 193 195 197 195 187 170 161 153 151 151 152 151 151 146 146 139 138 131 138 135 129 120 128 123 85 54 45 27 13 354 357 351 320 311 320 306 302 291 286 279
26 281 356 19 263 279 290 227 334 288 245 205 93 158 128 122 153 16 12 6 10 6 5 7 8 7 5 9 10 11 9 8 14 20 19 16 2 340 324 299 283 247 218 216 218 219 220 223 215 207 210 200 192 187 195 203 201 196 193 195 194 186 174 162 154 152 152 153 155 155 155 150 147 147 141 141 144 132 131 118 98 95 74 20 7 350 347 351 341 322 322 314 298 313 308 298 299
285 353 29 322 313 302 289 309 122 245 271 116 231 178 114 254 170 8 13 6 7 1 358 359 4 4 4 5 1 358 0 1 0 10 16 13 13 354 328 314 295 279 261 244 239 242 240 230 219 208 200 188 118 158 203 199 201 201 198 196 194 188 177 163 155 155 155 158 160 162 159 158 164 156 152 153 151 147 143 155 150 134 104 345 336 332 338 335 326 320 319 306 314 315 296 289 285
24 32 39 301 15 213 139 281 280 315 19 138 139 92 68 18 31 13 17 5 2 354 351 355 1 2 1 358 358 354 354 359 356 1 7 12 13 10 346 328 332 328 323 306 293 262 266 245 225 210 174 149 156 174 178 182 191 196 199 197 193 190 184 168 161 158 159 163 166 166 167 164 162 164 161 157 166 160 163 168 169 182 182 250 305 319 319 324 326 314 319 309 308 316 302 292 290
97 217 94 32 272 359 312 18 331 292 306 265 138 180 82 49 24 356 10 5 3 355 353 358 359 359 1 357 357 354 355 358 357 358 1 5 13 10 6 336 326 312 283 254 290 293 296 301 166 138 161 169 170 179 177 178 183 192 194 192 195 195 190 179 167 163 166 168 169 168 168 168 171 174 166 166 177 166 178 187 187 200 204 262 297 314 318 325 318 316 316 314 325 310 302 297 291
15 8 21 11 346 29 324 270 310 339 333 345 340 199 100 59 9 6 10 5 3 358 353 354 0 357 2 0 358 356 357 358 359 359 356 360 8 11 13 357 318 306 297 290 266 234 192 208 215 213 203 189 187 182 175 171 186 196 193 191 192 198 193 184 175 171 171 172 167 170 170 172 176 181 169 176 177 183 187 199 207 212 251 247 293 297 322 317 317 318 320 328 318 315 313 316 326
12 360 19 350 336 343 296 140 188 307 306 349 300 35 96 75 11 15 7 3 4 5 357 351 358 2 9 2 0 1 359 2 1 360 359 357 1 1 14 14 355 320 327 306 286 266 216 197 213 231 236 221 204 180 167 177 191 202 198 191 190 195 195 189 183 179 181 174 171 173 170 178 180 180 179 179 184 173 197 210 228 234 221 268 288 313 313 319 317 318 315 301 310 319 316 312 309